Weather History for West Palm Beach, FL

Change the Weather History Date:

Saturday, July 6, 2013

  Actual Average Record
Temperature  
Mean Temperature 86 °F 82 °F  
Max Temperature 90 °F 89 °F 95 °F (1962)
Min Temperature 81 °F 75 °F 67 °F (1920)
Degree Days  
Heating Degree Days 0 0  
Month to date heating degree days 0 0  
Since 1 June heating degree days 0 0  
Since 1 July heating degree days 0 0  
Cooling Degree Days 21 17  
Month to date cooling degree days 116 102  
Year to date cooling degree days 1790 1701  
Since 1 June cooling degree days 605 592  
Growing Degree Days 35 (Base 50)    
Moisture  
Dew Point 71 °F    
Average Humidity 62    
Maximum Humidity 69    
Minimum Humidity 55    
Precipitation  
Precipitation 0.09 in 0.21 in 2.93 in (1941)
Month to date precipitation 1.03 1.30  
Year to date precipitation 38.71 28.31  
Snow  
Snow 0.00 in - - ()
Month to date snowfall 0.0  
Since 1 June snowfall 0.0  
Since 1 July snowfall 0.0  
Snow Depth 0.00 in    
Sea Level Pressure  
Sea Level Pressure 30.08 in    
Wind  
Wind Speed 14 mph (ESE)    
Max Wind Speed 26 mph    
Max Gust Speed 36 mph    
Visibility 10 miles    
Events Rain    
T = Trace of Precipitation, MM = Missing Value Source: NWS Daily Summary

Daily Weather History Graph

Daily Weather History Graph

Search for Another Location

Airport:

Trip Planner

Search our weather history database for the weather conditions in past years. The results will help you decide how hot, cold, wet, or windy it might be!

Date:

Astronomy

Jul. 06, 2013 Rise Set
Actual Time 6:32 AM EDT 8:17 PM EDT
Civil Twilight 6:06 AM EDT 8:43 PM EDT
Nautical Twilight 5:35 AM EDT 9:15 PM EDT
Astronomical Twilight 5:02 AM EDT 9:48 PM EDT
Moon 5:12 AM EDT (7/6) 7:02 PM EDT (7/6)
Length of Visible Light 14h 37m
Length of Day
13h 45m
Waning Crescent, 2% of the Moon is Illuminated
Jul 6
Waning Crescent
Jul 8
New
Jul 15
First Quarter
Jul 22
Full
Jul 29
Last Quarter

Hourly Weather History & Observations

Time (EDT) Temp. Heat Index Dew Point Humidity Pressure Visibility Wind Dir Wind Speed Gust Speed Precip Events Conditions
12:53 AM 82.9 °F 87.0 °F 70.0 °F 65% 30.12 in 10.0 mi ESE 10.4 mph - N/A   Scattered Clouds
1:53 AM 82.9 °F 87.5 °F 71.1 °F 67% 30.10 in 10.0 mi ESE 11.5 mph - N/A   Partly Cloudy
2:53 AM 82.0 °F 86.3 °F 71.1 °F 69% 30.09 in 10.0 mi ESE 11.5 mph - N/A   Partly Cloudy
3:53 AM 82.0 °F 85.9 °F 70.0 °F 67% 30.06 in 10.0 mi ESE 11.5 mph - N/A   Partly Cloudy
4:53 AM 82.0 °F 85.9 °F 70.0 °F 67% 30.05 in 10.0 mi ESE 11.5 mph - N/A   Clear
5:53 AM 82.0 °F 85.9 °F 70.0 °F 67% 30.05 in 10.0 mi East 15.0 mph - N/A   Partly Cloudy
6:53 AM 82.9 °F 87.0 °F 70.0 °F 65% 30.06 in 10.0 mi ESE 11.5 mph - N/A   Scattered Clouds
7:53 AM 84.0 °F 88.4 °F 70.0 °F 63% 30.08 in 10.0 mi ESE 13.8 mph - N/A   Mostly Cloudy
8:53 AM 84.9 °F 90.1 °F 71.1 °F 63% 30.10 in 10.0 mi ESE 16.1 mph 23.0 mph N/A   Mostly Cloudy
9:53 AM 87.1 °F 92.8 °F 71.1 °F 59% 30.11 in 10.0 mi ESE 16.1 mph - N/A   Scattered Clouds
10:53 AM 88.0 °F 93.8 °F 71.1 °F 57% 30.12 in 10.0 mi ESE 17.3 mph - N/A   Scattered Clouds
11:53 AM 88.0 °F 92.9 °F 70.0 °F 55% 30.11 in 10.0 mi ESE 20.7 mph 25.3 mph N/A   Scattered Clouds
12:53 PM 89.1 °F 95.0 °F 71.1 °F 55% 30.11 in 10.0 mi ESE 18.4 mph 23.0 mph N/A   Scattered Clouds
1:53 PM 88.0 °F 92.9 °F 70.0 °F 55% 30.11 in 10.0 mi East 20.7 mph - N/A   Scattered Clouds
2:53 PM 88.0 °F 94.7 °F 72.0 °F 59% 30.09 in 10.0 mi SE 15.0 mph 21.9 mph N/A   Scattered Clouds
3:53 PM 88.0 °F 94.7 °F 72.0 °F 59% 30.07 in 10.0 mi East 18.4 mph - N/A   Mostly Cloudy
4:53 PM 88.0 °F 93.8 °F 71.1 °F 57% 30.06 in 10.0 mi ESE 16.1 mph - 0.00 in   Mostly Cloudy
5:12 PM 86.0 °F 93.4 °F 73.4 °F 66% 30.06 in 1.0 mi SE 25.3 mph 35.7 mph 0.00 in Rain Heavy Rain
5:23 PM 80.6 °F 85.4 °F 73.4 °F 79% 30.05 in 10.0 mi SE 10.4 mph - 0.09 in   Mostly Cloudy
5:53 PM 84.0 °F 89.6 °F 72.0 °F 67% 30.04 in 10.0 mi ESE 13.8 mph - 0.09 in   Mostly Cloudy
6:53 PM 84.9 °F 90.7 °F 72.0 °F 65% 30.05 in 10.0 mi ESE 15.0 mph - N/A   Mostly Cloudy
7:53 PM 84.0 °F 88.4 °F 70.0 °F 63% 30.06 in 10.0 mi ESE 17.3 mph - N/A   Scattered Clouds
8:53 PM 84.0 °F 88.4 °F 70.0 °F 63% 30.07 in 10.0 mi ESE 10.4 mph - N/A   Mostly Cloudy
9:53 PM 84.0 °F 89.6 °F 72.0 °F 67% 30.09 in 10.0 mi SE 11.5 mph - N/A   Mostly Cloudy
10:53 PM 84.0 °F 89.6 °F 72.0 °F 67% 30.11 in 10.0 mi ESE 12.7 mph - N/A   Mostly Cloudy
11:53 PM 82.9 °F 87.5 °F 71.1 °F 67% 30.10 in 10.0 mi ESE 9.2 mph - N/A   Scattered Clouds